User: anonymous   Login
Location: Theydon Bois
(51.6750°N, 0.1050°E)
Time: 12:27:37
(UTC+00:00)
Language:

BREEZE-M DEB (TANK) - Orbit

View from above orbital plane
View from above orbital plane
View from above satellite
View from above satellite

Ground track
Ground track

The orbit data is extracted from the following two-line orbital elements,

1 33374U 08044B   17345.39801937  .00000427  00000-0  17592-3 0  9996
2 33374  49.4647 159.1181 5418870 191.1463 149.0622  4.87209632162633
Epoch (UTC): 11 December 2017 09:33:08
Eccentricity: 0.5418870
inclination: 49.4647°
perigee height: 355 km
apogee height: 16284 km
right ascension of ascending node: 159.1181°
argument of perigee: 191.1463°
revolutions per day: 4.87209632
mean anomaly at epoch: 149.0622°
orbit number at epoch: 16263

The dashed part of the orbit path shows where the satellite is in the earth's shadow,  

DLR